Terminal Aerodrome Forecast
Issued by NWS Boston, MA

Home | Current Version | Previous Version | Text Only | Print | Product List | Glossary On
Versions: 1 2 3 4 5 6 7 8 9 10 11 12 13 14 15 16 17 18 19 20 21 22 23 24 25 26 27 28 29 30 31 32 33 34 35 36 37 38 39
000
FTUS41 KBOX 250902 AAA
TAFPVD
TAF AMD
KPVD 250902Z 2509/2606 20006KT P6SM SCT100 BKN200
     FM251600 20010KT P6SM BKN100
     FM252100 19011G22KT P6SM BKN120
     FM260100 21011KT P6SM SCT120 BKN250=

USA.gov is the U.S. government's official web portal to all federal, state and local government web resources and services.